Location: Cactus School
(34.5700°N, 118.0931°W)
Time: 10:24:15
(UTC-08:00)

Tiros 1 - Pass Details

Date: 26 November 2019
Orbit: 630 x 664 km, 48.4° (Epoch: 10 December)

Event Time Altitude Azimuth Distance (km) Brightness Sun altitude
Rises 16:47:24 0° 311° (NW) 2,918 10.9 -1.7°
Reaches altitude 10° 16:49:47 10° 317° (NW) 2,011 10.0 -2.1°
Maximum altitude 16:54:15 48° 32° (NNE) 828 7.4 -3.0°
Drops below altitude 10° 16:58:45 10° 107° (ESE) 2,018 9.2 -3.8°
Sets 17:01:09 0° 113° (ESE) 2,929 10.1 -4.3°
